Find Starlink 35060

NORAD ID: 65693 Int'l Des: 2025-212 Owner: SPXS Country: US Constellation: starlink operational
LEOCIRCULAR

Live Position

Loading 3D Globe...

About Starlink 35060

Description loading...

Upcoming Passes

Passes for default location (London). Set your location on the main map for personalized predictions.

Altitude History

Loading altitude history...

Two-Line Element Set

1 65693U 25212T 26105.43795961 .00008975 00000-0 31474-3 0 9990
2 65693 53.1608 164.7248 0001199 92.3961 267.7177 15.30203413 33012
Epoch: Apr 15, 2026 • Age: 10 hours

Current Status

Altitude 475.1 km
Velocity 7.63 km/s
Sub-Earth Point 9.82°N, 178.35°W
Launch Date Sep 21, 2025
Age 0.5 years
Type internet

Technical Details

Classification Payload
Mass 575.00 kg
Dry Mass 530.00 kg
Total Mass 575.00 kg
Length 0.30 m
Diameter 4.10 m
Span 29.00 m
Shape Box + pan
Manufacturer SPXS
Bus Type Starlink V2MO
Phase Status In Orbit
Owner/State SPXS/US

Most Searched